User: anonymous   Login
Location: Castelbiague
(43.0361°N, 0.9246°E)
Time: 22:12:27
(UTC+00:00)
Language:

Cosmos 2322 - Orbit

View from above orbital plane
View from above orbital plane
View from above satellite
View from above satellite

Ground track
Ground track

The orbit data is extracted from the following two-line orbital elements,

1 23704U 95058A   21266.21246991  .00000164  00000-0  11248-3 0  9994
2 23704  70.9866  15.9586 0011426 254.6913 105.2946 14.13431938336121
Epoch (UTC): 23 September 2021 05:05:57
Eccentricity: 0.0011426
inclination: 70.9866°
perigee height: 839 km
apogee height: 856 km
right ascension of ascending node: 15.9586°
argument of perigee: 254.6913°
revolutions per day: 14.13431938
mean anomaly at epoch: 105.2946°
orbit number at epoch: 33612

The dashed part of the orbit path shows where the satellite is in the earth's shadow,  

DLR